Flag for Jordan Weather past 2 weeks in Amman, Jordan

Now
86 °F

Passing clouds.


Feels Like: 84 °F
Forecast: 68 / 87 °F
Wind: 8 mph from Northwest

Location: Amman Airport

Current Time: Jul 22, 2014 at 2:56:06 PM

Latest Report: Jul 22, 2014 at 2:00 PM


Visibility: 4 mi

Pressure: 29.86 "Hg

Humidity: 29%

Dew point: 50 °F

Location of AmmanLocation

Historic Weather in Amman — Graph

°F

Amman temperature yesterday

Maximum temperature yesterday: 82 °F (at 3:00 PM)
Minimum temperature yesterday: 66 °F (at 5:00 AM)
Average temperature yesterday: 74 °F

Past Weeks' High & Low Weather Summary

 TemperatureHumidityPressure
High97 °F (Jul 12, 3:00 PM)88% (Jul 21, 6:00 AM)30.01 "Hg (Jul 21, 6:00 AM)
Low64 °F (Jul 18, 5:00 AM)11% (Jul 10, 9:00 AM)29.83 "Hg (Jul 8, 5:00 PM)
Average77 °F45%29.89 "Hg
* Reported Jul 7 1:00 PM — Jul 22 1:00 PM, Amman, Weather by CustomWeather, © 2014

Note: Actual official high and low records may vary slightly from our data, if they occured in-between our weather recording intervals... More about our weather records

Advertising

Amman weather history for previous 24 hours

 ConditionsComfort  
Time TempWeatherWind HumidityBarometerVisibility
1:00 PM
Jul 22
84 °FPassing clouds.3 mph31%29.86 "Hg4 mi
12:00 PM82 °FHaze.8 mph40%29.86 "Hg3 mi
11:00 AM79 °FHaze.7 mph42%29.86 "Hg3 mi
10:00 AM77 °FHaze.8 mph44%29.89 "Hg3 mi
9:00 AM73 °FHaze.9 mph53%29.86 "Hg3 mi
8:00 AM72 °FHaze.6 mph53%29.86 "Hg3 mi
7:00 AM70 °FHaze.6 mph57%29.86 "Hg2 mi
6:00 AM66 °FHaze.No wind68%29.86 "Hg2 mi
5:00 AM66 °FHaze.5 mph73%29.86 "Hg3 mi
4:00 AM68 °FHaze.5 mph60%29.86 "Hg3 mi
3:00 AM70 °FHaze.No wind57%29.86 "Hg3 mi
2:00 AM72 °FHaze.6 mph53%29.86 "Hg3 mi
1:00 AM72 °FHaze.No wind50%29.86 "Hg3 mi
12:00 AM72 °FHaze.7 mph57%29.86 "Hg3 mi
11:00 PM
Jul 21
73 °FHaze.7 mph57%29.86 "Hg3 mi
10:00 PM73 °FHaze.7 mph57%29.86 "Hg3 mi
9:00 PM73 °FClear.6 mph61%29.89 "Hg4 mi
8:00 PM75 °FScattered clouds.13 mph54%29.83 "Hg4 mi
7:00 PM79 °FScattered clouds.13 mph48%29.83 "Hg4 mi
6:00 PM81 °FScattered clouds.13 mph45%29.83 "Hg4 mi
5:00 PM82 °FScattered clouds.17 mph40%29.83 "Hg3 mi
4:00 PM82 °FScattered clouds.18 mph42%29.83 "Hg3 mi
3:00 PM82 °FPartly sunny.15 mph42%29.86 "Hg3 mi
2:00 PM81 °FPartly sunny.15 mph45%29.86 "Hg3 mi
Weather by CustomWeather, © 2014

See weather overviewHow to use our weather pages